Regional Weather Roundup
Issued by NWS

Home | Current Version | Previous Version | Graphics & Text | Print | Product List | Glossary On
Versions: 1 2 3 4 5 6 7 8 9 10 11 12 13 14 15 16 17 18 19 20 21 22 23 24 25 26 27 28 29 30 31 32 33 34 35 36 37 38 39 40 41 42 43 44 45 46 47 48 49 50
000
ASUS43 KOAX 060802
RWRNE

WEATHER ROUNDUP FOR NEBRASKA
NATIONAL WEATHER SERVICE OMAHA NE
200 AM CST FRI MAR 06 2015

NOTES: SATELLITE DATA IS BEING USED TO AUGMENT CLOUD COVER ABOVE
       12000 FEET.
       "FAIR" INDICATES FEW OR NO CLOUDS BELOW 12,000 FEET WITH NO
       SIGNIFICANT WEATHER AND/OR OBSTRUCTIONS TO VISIBILITY.

  * THESE STATIONS DO NOT REPORT WEATHER SUCH AS RAIN...SNOW OR FOG.

NEZ001>004-019>022-054>056-060900-
NEBRASKA PANHANDLE

CITY           SKY/WX    TMP DP  RH WIND       PRES   REMARKS
SCOTTSBLUFF    MOCLDY    28  20  71 NW3       30.22R
ALLIANCE       PTCLDY    20  17  88 W7        30.18F WCI  11
CHADRON        CLOUDY    31  22  69 SW9       30.18F WCI  23
KIMBALL        MOCLDY    30  19  64 W10       30.21R WCI  21
SIDNEY         PTCLDY    30  18  60 W12       30.22F WCI  20
$$

NEZ057>060-069>072-079>082-060900-
SOUTHWEST NEBRASKA

CITY           SKY/WX    TMP DP  RH WIND       PRES   REMARKS
NORTH PLATTE   CLEAR     17  10  74 NW6       30.21F WCI   9
IMPERIAL         N/A     27  16  63 W10       30.23F WCI  17
LEXINGTON      CLEAR     20  13  76 W7        30.22R WCI  11
MCCOOK         CLEAR     26  17  68 W10       30.25R WCI  16
$$

NEZ005>010-023>029-035>040-094-060900-
NORTH CENTRAL NEBRASKA

CITY           SKY/WX    TMP DP  RH WIND       PRES   REMARKS
VALENTINE      CLEAR     22  18  85 W6        30.15S WCI  14
AINSWORTH      CLEAR     26  19  74 W10       30.15S WCI  17
BROKEN BOW     CLEAR     32  14  47 W9        30.19R WCI  24
ORD            CLEAR     13   5  70 CALM      30.18S
$$

NEZ041-046>049-061>064-073>077-083>087-060900-
SOUTH CENTRAL NEBRASKA

CITY           SKY/WX    TMP DP  RH WIND       PRES   REMARKS
GRAND ISLAND   CLEAR     26  10  50 W12       30.20S WCI  16
HASTINGS       CLEAR     25  10  53 SW8       30.19S WCI  16
HEBRON         CLEAR     30  13  49 SW14G20   30.24S WCI  20
KEARNEY *      CLEAR     28  12  50 SW6       30.21R WCI  22
YORK           CLEAR     21  10  63 SW8       30.20S WCI  12
$$

NEZ011>018-030>034-042>045-060900-
NORTHEAST NEBRASKA

CITY           SKY/WX    TMP DP  RH WIND       PRES   REMARKS
NORFOLK        CLEAR     25   8  48 SW7       30.15F WCI  17
BLAIR          PTCLDY    26  13  56 S17       30.20F WCI  13
COLUMBUS *     CLEAR     23   3  42 SW3       30.20F
FREMONT        CLEAR     24  13  62 SE8       30.21F WCI  16
TEKAMAH        PTCLDY    23  10  57 S13       30.22F WCI  11
$$

NEZ050>053-065>068-078-088>093-060900-
SOUTHEAST NEBRASKA

CITY           SKY/WX    TMP DP  RH WIND       PRES   REMARKS
LINCOLN        CLEAR     28  16  60 S13       30.23F WCI  17
OMAHA EPPLEY   PTCLDY    25  12  58 S18       30.26F WCI  11
FALLS CITY     PTCLDY    25  14  63 S13       30.32F WCI  14
$$

NEZ044-045-051>053-067-060900-
OMAHA AREA

CITY           SKY/WX    TMP DP  RH WIND       PRES   REMARKS
OMAHA EPPLEY   PTCLDY    25  12  58 S18       30.26F WCI  11
BLAIR          PTCLDY    26  13  56 S17       30.20F WCI  13
FREMONT        CLEAR     24  13  62 SE8       30.21F WCI  16
OFFUTT AFB     PTCLDY    24  12  62 SE10      30.25F WCI  13
$$



USA.gov is the U.S. government's official web portal to all federal, state and local government web resources and services.